Regional Weather Roundup
Issued by NWS

Home | Current Version | Previous Version | Text Only | Print | Product List | Glossary Off
Versions: 1 2 3 4 5 6 7 8 9 10 11 12 13 14 15 16 17 18 19 20 21 22 23 24 25 26 27

000
ASUS45 KSLC 240610
RWRUT

UTAH REGIONAL WEATHER ROUNDUP
NATIONAL WEATHER SERVICE SALT LAKE CITY UT
1200 AM MDT SUN JUL 24 2016

UTZ001>011-023>025-240700-

NORTHERN UTAH

CITY           SKY/WX    TMP DP  RH WIND       PRES   REMARKS
BRIGHAM CITY     N/A     73  30  19 W8        30.07R
HILL AFB       CLEAR     73  25  16 E12       30.08S
LOGAN          CLEAR     67  38  34 CALM      30.11R
OGDEN          CLEAR     71  27  19 SW5       30.06R
PROVO AIRPORT  CLEAR     66  43  42 E6        30.05S
SALT LAKE CITY CLEAR     75  31  19 S6        30.03S
VERNAL         PTCLDY    78  21  12 NE12      30.10R
WENDOVER       CLEAR     79  32  18 N25G33    30.07S
HEBER CITY     CLEAR     61  36  39 CALM      30.14S

$$

UTZ012>022-026-027-240700-

SOUTHERN/CENTRAL UTAH

CITY           SKY/WX    TMP DP  RH WIND       PRES   REMARKS
BLANDING       PTCLDY    77  38  24 NE10      30.19F
BRYCE CANYON   CLEAR     62  32  32 W8        30.30S
CEDAR CITY     CLEAR     74  31  20 S6        30.10S
DELTA          CLEAR     77  23  13 N12       30.04R
MILFORD        CLEAR     76  25  15 E5        30.05R
MOAB/CYNLANDS  PTCLDY    80  38  22 CALM      30.00R
PRICE          PTCLDY    73  27  18 CALM      30.13R
ST GEORGE      CLEAR     91  36  14 CALM      29.88S
KANAB          CLEAR     73  43  33 CALM      30.09

$$

REGIONAL REPORTS     COLORADO/ARIZONA

CITY           SKY/WX    TMP DP  RH WIND       PRES   REMARKS
CRAIG, CO      CLOUDY    61  42  49 CALM      30.20R
GRAND JUNCTION CLEAR     78  44  29 N7        30.07R
RIFLE          CLEAR     72  43  35 S9        30.15R
MONTROSE       CLOUDY    73  43  33 SE13      30.15S
CORTEZ         CLOUDY    68  44  42 NE6       30.16R
PAGE, AZ       PTCLDY    92  41  17 S6        29.99R
GRAND CANYON   PTCLDY    65  52  62 CALM      30.26R
KINGMAN        CLEAR     88  49  25 SW12      29.96S
FLAGSTAFF      MOCLDY    66  51  58 CALM      30.26F

$$

REGIONAL REPORTS    NEVADA/IDAHO/WYOMING

CITY           SKY/WX    TMP DP  RH WIND       PRES   REMARKS
LAS VEGAS, NV  CLEAR     99  34  10 S7        29.76R HX  93
ELY            CLEAR     69  18  14 N9        30.20R
ELKO           CLEAR     72  26  18 E8        30.15R
POCATELLO, ID  CLEAR     68  27  21 S12       30.12R
BURLEY         CLEAR     64  31  28 SW12      30.09F
EVANSTON, WY   CLOUDY    64  20  18 E6        30.28S
ROCK SPRINGS   CLEAR     64  19  17 NW5       30.24S
KEMMERER         N/A     55  30  38 N12       30.29F

$$




USA.gov is the U.S. government's official web portal to all federal, state and local government web resources and services.